ORBCOMM FM110

Last updated on Sun Jun 21 2026 00:03:16 GMT+0000 (Coordinated Universal Time)

1 41182U 15081D 26171.18577907 .00000452 00000+0 13179-3 0 9996 2 41182 47.0032 347.2650 0002477 94.2496 265.8673 14.58884051558060
UTC large
Height (km)
Speed (km/s)
/
Latitude / Longitude
Inclination (degrees)
Orbital Period (minutes)
Azimuth
Elevation
Range (km)
Doppler Factor

Next 0 passes for location: London (51.5072 / 0.1276)

No passes found over London.
ORBCOMM FM110